Weather History for Edinburg, TX

Change the Weather History Date:

Tuesday, February 25, 2014

  Actual Average (KMFE) Record (KMFE)
Temperature  
Mean Temperature 76 °F 67 °F  
Max Temperature 80 °F 77 °F 97 °F (2008)
Min Temperature 71 °F 56 °F 29 °F (1897)
Degree Days  
Heating Degree Days 0 3  
Month to date heating degree days 100  
Since 1 July heating degree days 527  
Cooling Degree Days 10 4  
Month to date cooling degree days 82  
Year to date cooling degree days 144  
Growing Degree Days 26 (Base 50)    
Moisture  
Dew Point 69 °F    
Average Humidity 86    
Maximum Humidity 94    
Minimum Humidity 65    
Precipitation  
Precipitation 0.00 in 0.03 in 5.25 in (1983)
Month to date precipitation 1.00  
Year to date precipitation 2.05  
Sea Level Pressure  
Sea Level Pressure 29.93 in    
Wind  
Wind Speed 6 mph (East)    
Max Wind Speed 13 mph    
Max Gust Speed -    
Visibility 6 miles    
Events      
T = Trace of Precipitation, MM = Missing Value Source: NWS Daily Summary

Daily Weather History Graph

Daily Weather History Graph

Search for Another Location

Airport:

Trip Planner

Search our weather history database for the weather conditions in past years. The results will help you decide how hot, cold, wet, or windy it might be!

Date:

Astronomy

Feb. 25, 2014 Rise Set
Actual Time 6:59 AM CST 6:31 PM CST
Civil Twilight 6:36 AM CST 6:54 PM CST
Nautical Twilight 6:09 AM CST 7:21 PM CST
Astronomical Twilight 5:42 AM CST 7:48 PM CST
Moon 3:40 AM CST (2/25) 2:53 PM CST (2/25)
Length of Visible Light 12h 18m
Length of Day
11h 31m
Waning Crescent, 18% of the Moon is Illuminated
Feb 25
Waning Crescent
Mar 1
New
Mar 8
First Quarter
Mar 16
Full
Mar 23
Last Quarter

Hourly Weather History & Observations

Time (CST) Temp. Heat Index Dew Point Humidity Pressure Visibility Wind Dir Wind Speed Gust Speed Precip Events Conditions
12:15 AM 71.6 °F - 69.8 °F 94% 29.98 in 5.0 mi East 4.6 mph - N/A   Overcast
12:35 AM 71.6 °F - 68.0 °F 88% 29.98 in 5.0 mi East 4.6 mph - N/A   Overcast
1:15 AM 71.6 °F - 68.0 °F 88% 29.97 in 5.0 mi East 5.8 mph - N/A   Overcast
1:20 AM - - - N/A% 29.97 in 5.0 mi East 5.8 mph - N/A   Overcast
1:59 AM 71.6 °F - 69.8 °F 94% 29.95 in 5.0 mi East 5.8 mph - N/A   Overcast
2:37 AM 71.6 °F - 69.8 °F 94% 29.94 in 4.0 mi East 4.6 mph - N/A   Overcast
3:39 AM 71.6 °F - 69.8 °F 94% 29.93 in 3.0 mi East 3.5 mph - N/A   Overcast
5:15 AM - - - N/A% 29.93 in 4.0 mi East 5.8 mph - N/A   Overcast
5:35 AM - - - N/A% 29.93 in 4.0 mi ENE 5.8 mph - N/A   Overcast
6:15 AM 71.2 °F - 68.5 °F 91% 29.94 in 4.0 mi ENE 3.5 mph - N/A   Overcast
6:17 AM 71.6 °F - 69.8 °F 94% 29.94 in 4.0 mi ENE 3.5 mph - N/A   Overcast
6:50 AM - - - N/A% 29.95 in 5.0 mi ENE 3.5 mph - N/A   Overcast
7:20 AM 71.2 °F - 61.2 °F 70% 29.95 in 4.0 mi ENE 4.6 mph - N/A   Overcast
7:58 AM 71.6 °F - 69.8 °F 94% 29.96 in 3.0 mi ENE 8.1 mph - N/A   Overcast
8:15 AM - - - N/A% 29.96 in 3.0 mi East 6.9 mph - N/A   Overcast
9:20 AM - - - N/A% 29.98 in 4.0 mi East 6.9 mph - N/A   Overcast
9:55 AM 73.4 °F - 69.8 °F 88% 29.99 in 4.0 mi East 8.1 mph - N/A   Overcast
10:15 AM 73.4 °F - 69.8 °F 88% 29.98 in 5.0 mi East 9.2 mph - N/A   Overcast
10:35 AM - - - N/A% - - East 9.2 mph - N/A   Unknown
10:37 AM 75.2 °F - 71.6 °F 89% 29.97 in 5.0 mi East 9.2 mph - N/A   Overcast
12:55 PM 77.0 °F - 71.6 °F 83% 29.92 in 7.0 mi East 9.2 mph - N/A   Overcast
4:37 PM 80.6 °F 83.2 °F 68.0 °F 65% 29.83 in 10.0 mi SE 12.7 mph - N/A   Overcast
6:37 PM 77.0 °F - 69.8 °F 78% 29.85 in 10.0 mi ESE 9.2 mph - N/A   Mostly Cloudy
6:55 PM 77.0 °F - 69.8 °F 78% 29.86 in 10.0 mi East 9.2 mph - N/A   Overcast
7:15 PM 75.2 °F - 69.8 °F 83% 29.87 in 10.0 mi ESE 9.2 mph - N/A   Overcast
7:35 PM 75.2 °F - 69.8 °F 83% 29.87 in 10.0 mi ESE 8.1 mph - N/A   Overcast
7:55 PM 75.2 °F - 69.8 °F 83% 29.88 in 10.0 mi ESE 6.9 mph - N/A   Overcast
8:15 PM 75.2 °F - 69.8 °F 83% 29.89 in 10.0 mi ESE 6.9 mph - N/A   Overcast
8:35 PM 73.4 °F - 69.8 °F 88% 29.89 in 10.0 mi SE 8.1 mph - N/A   Mostly Cloudy
8:55 PM 73.4 °F - 69.8 °F 88% 29.90 in 10.0 mi SE 6.9 mph - N/A   Mostly Cloudy
10:55 PM - - - N/A% 29.89 in 7.0 mi SE 5.8 mph - N/A   Clear
11:30 PM - - - N/A% 29.90 in 5.0 mi SE 3.5 mph - N/A   Mostly Cloudy
11:37 PM 71.6 °F - 68.0 °F 88% 29.89 in 5.0 mi SE 3.5 mph - N/A   Overcast